Wendover, UT

5:28 AM MDT on May 27, 2017 (GMT -0600)
Wendover

Weather History for KENV - December, 2013

Change the Weather History Date:

Saturday, December 7, 2013

  Actual Average Record
Temperature  
Mean Temperature 12 °F -  
Max Temperature 19 °F 38 °F 62 °F (1977)
Min Temperature 5 °F 23 °F 5 °F (2013)
Degree Days  
Heating Degree Days 53    
Moisture  
Dew Point 7 °F    
Average Humidity 75    
Maximum Humidity 92    
Minimum Humidity 49    
Precipitation  
Precipitation 0.00 in - - ()
Sea Level Pressure  
Sea Level Pressure 29.77 in    
Wind  
Wind Speed 3 mph (WNW)    
Max Wind Speed 23 mph    
Max Gust Speed 30 mph    
Visibility 9 miles    
Events      
Averages and records for this station are not official NWS values.
T = Trace of Precipitation, MM = Missing Value Source: NWS Daily Summary

Daily Weather History Graph

Daily Weather History Graph

Search for Another Location

Airport or City:

Trip Planner

Search our weather history database for the weather conditions in past years. The results will help you decide how hot, cold, wet, or windy it might be!

Date:

Astronomy

Dec. 07, 2013 Rise Set
Actual Time 7:46 AM MST 5:08 PM MST
Civil Twilight 7:16 AM MST 5:39 PM MST
Nautical Twilight 6:41 AM MST 6:13 PM MST
Astronomical Twilight 6:08 AM MST 6:46 PM MST
Moon 11:33 AM MST (12/7) 10:56 PM MST (12/7)
Length of Visible Light 10h 23m
Length of Day
9h 21m
Waxing Crescent, 30% of the Moon is Illuminated
Dec 7
Waxing Crescent
Dec 9
First Quarter
Dec 17
Full
Dec 25
Last Quarter
Jan 1
New

Hourly Weather History & Observations

Time (MST) Temp. Windchill Dew Point Humidity Pressure Visibility Wind Dir Wind Speed Gust Speed Precip Events Conditions
12:15 AM 8.6 °F -1.3 °F -0.4 °F 67% 29.94 in 10.0 mi ENE 5.8 mph - N/A   Clear
12:35 AM 6.8 °F -3.5 °F 1.4 °F 79% 29.92 in 10.0 mi East 5.8 mph - N/A   Clear
12:55 AM 6.8 °F - -0.4 °F 72% 29.91 in 10.0 mi Calm Calm - N/A   Clear
1:15 AM 6.8 °F - 1.4 °F 79% 29.89 in 10.0 mi Calm Calm - N/A   Clear
1:35 AM 6.8 °F - -2.2 °F 67% 29.88 in 10.0 mi Calm Calm - N/A   Clear
1:55 AM 5.0 °F -5.6 °F -0.4 °F 78% 29.88 in 10.0 mi WNW 5.8 mph - N/A   Clear
2:15 AM 6.8 °F -0.1 °F 3.2 °F 85% 29.86 in 10.0 mi NNW 3.5 mph - N/A   Clear
2:35 AM 8.6 °F - 3.2 °F 79% 29.85 in 10.0 mi Calm Calm - N/A   Clear
2:55 AM 8.6 °F 2.0 °F 1.4 °F 73% 29.83 in 10.0 mi ENE 3.5 mph - N/A   Clear
3:15 AM 8.6 °F - 3.2 °F 79% 29.83 in 10.0 mi Calm Calm - N/A   Clear
3:35 AM 8.6 °F 2.0 °F 3.2 °F 79% 29.82 in 10.0 mi NE 3.5 mph - N/A   Mostly Cloudy
3:55 AM 8.6 °F - 1.4 °F 73% 29.82 in 10.0 mi Calm Calm - N/A   Overcast
4:15 AM 8.6 °F 0.1 °F 3.2 °F 79% 29.79 in 10.0 mi East 4.6 mph - N/A   Mostly Cloudy
4:35 AM 8.6 °F - 3.2 °F 79% 29.78 in 10.0 mi Calm Calm - N/A   Clear
4:55 AM 10.4 °F - 3.2 °F 73% 29.77 in 10.0 mi Calm Calm - N/A   Clear
5:15 AM 10.4 °F - 3.2 °F 73% 29.76 in 10.0 mi Calm Calm - N/A   Clear
5:35 AM 10.4 °F - 3.2 °F 73% 29.76 in 10.0 mi Calm Calm - N/A   Mostly Cloudy
5:55 AM 10.4 °F 4.0 °F 3.2 °F 73% 29.75 in 2.5 mi West 3.5 mph - N/A   Overcast
6:15 AM 10.4 °F 0.8 °F 5.0 °F 79% 29.74 in 1.8 mi West 5.8 mph - N/A   Overcast
6:35 AM 8.6 °F 2.0 °F 6.8 °F 92% 29.74 in 1.5 mi West 3.5 mph - N/A   Overcast
6:55 AM 10.4 °F 2.2 °F 6.8 °F 85% 29.73 in 4.0 mi WSW 4.6 mph - N/A   Overcast
7:15 AM 10.4 °F 4.0 °F 6.8 °F 85% 29.73 in 1.5 mi SW 3.5 mph - N/A   Overcast
7:35 AM 10.4 °F - 6.8 °F 85% 29.73 in 4.0 mi Calm Calm - N/A   Scattered Clouds
7:55 AM 10.4 °F - 6.8 °F 85% 29.72 in 3.0 mi Calm Calm - N/A   Clear
8:15 AM 10.4 °F - 6.8 °F 85% 29.72 in 7.0 mi Calm Calm - N/A   Clear
8:35 AM 10.4 °F - 6.8 °F 85% 29.71 in 8.0 mi Calm Calm - N/A   Clear
8:55 AM 10.4 °F - 6.8 °F 85% 29.72 in 9.0 mi Calm Calm - N/A   Clear
9:15 AM 10.4 °F 4.0 °F 6.8 °F 85% 29.72 in 10.0 mi WSW 3.5 mph - N/A   Clear
9:35 AM 10.4 °F - 6.8 °F 85% 29.72 in 10.0 mi Calm Calm - N/A   Clear
9:55 AM 10.4 °F - 6.8 °F 85% 29.71 in 9.0 mi Calm Calm - N/A   Clear
10:15 AM 12.2 °F - 6.8 °F 79% 29.71 in 10.0 mi Calm Calm - N/A   Clear
10:35 AM 12.2 °F - 8.6 °F 85% 29.72 in 10.0 mi Calm Calm - N/A   Clear
10:55 AM 14.0 °F 8.2 °F 8.6 °F 79% 29.72 in 10.0 mi SSW 3.5 mph - N/A   Clear
11:15 AM 15.8 °F - 10.4 °F 79% 29.71 in 10.0 mi Calm Calm - N/A   Clear
11:35 AM 15.8 °F - 8.6 °F 73% 29.71 in 10.0 mi Calm Calm - N/A   Clear
11:55 AM 15.8 °F - 8.6 °F 73% 29.70 in 10.0 mi Calm Calm - N/A   Clear
12:15 PM 15.8 °F - 8.6 °F 73% 29.69 in 10.0 mi Calm Calm - N/A   Clear
12:35 PM 17.6 °F - 10.4 °F 73% 29.68 in 10.0 mi Calm Calm - N/A   Clear
12:55 PM 17.6 °F - 8.6 °F 68% 29.68 in 10.0 mi Calm Calm - N/A   Clear
1:15 PM 17.6 °F - 10.4 °F 73% 29.67 in 9.0 mi Calm Calm - N/A   Mostly Cloudy
1:35 PM 17.6 °F - 10.4 °F 73% 29.67 in 1.8 mi Calm Calm - N/A   Mostly Cloudy
1:55 PM 17.6 °F 12.3 °F 12.2 °F 79% 29.67 in 10.0 mi South 3.5 mph - N/A   Clear
2:15 PM 17.6 °F - 12.2 °F 79% 29.67 in 10.0 mi Calm Calm - N/A   Clear
2:35 PM 17.6 °F - 12.2 °F 79% 29.67 in 10.0 mi Calm Calm - N/A   Clear
2:55 PM 17.6 °F 9.3 °F 12.2 °F 79% 29.67 in 1.2 mi South 5.8 mph - N/A   Mostly Cloudy
3:15 PM 17.6 °F 10.7 °F 12.2 °F 79% 29.68 in 2.5 mi South 4.6 mph - N/A   Mostly Cloudy
3:35 PM 17.6 °F - 12.2 °F 79% 29.68 in 10.0 mi Calm Calm - N/A   Clear
3:55 PM 17.6 °F - 12.2 °F 79% 29.69 in 10.0 mi Calm Calm - N/A   Clear
4:15 PM 17.6 °F 12.3 °F 12.2 °F 79% 29.71 in 10.0 mi South 3.5 mph - N/A   Clear
4:35 PM 17.6 °F - 12.2 °F 79% 29.70 in 10.0 mi Calm Calm - N/A   Clear
4:55 PM 17.6 °F 12.3 °F 12.2 °F 79% 29.71 in 10.0 mi WNW 3.5 mph - N/A   Clear
5:15 PM 17.6 °F 12.3 °F 12.2 °F 79% 29.73 in 10.0 mi NE 3.5 mph - N/A   Scattered Clouds
5:35 PM 17.6 °F 12.3 °F 12.2 °F 79% 29.73 in 10.0 mi SSE 3.5 mph - N/A   Mostly Cloudy
5:55 PM 19.4 °F 14.3 °F 12.2 °F 74% 29.74 in 10.0 mi South 3.5 mph - N/A   Mostly Cloudy
6:15 PM 19.4 °F 12.8 °F 12.2 °F 74% 29.76 in 10.0 mi SSE 4.6 mph - N/A   Mostly Cloudy
6:35 PM 17.6 °F - 12.2 °F 79% 29.77 in 10.0 mi Calm Calm - N/A   Partly Cloudy
6:55 PM 19.4 °F - 14.0 °F 80% 29.79 in 10.0 mi Calm Calm - N/A   Partly Cloudy
7:15 PM 19.4 °F 11.5 °F 12.2 °F 74% 29.80 in 10.0 mi NNW 5.8 mph - N/A   Clear
7:35 PM 19.4 °F 12.8 °F 12.2 °F 74% 29.81 in 10.0 mi North 4.6 mph - N/A   Clear
7:55 PM 19.4 °F 7.9 °F 12.2 °F 74% 29.82 in 10.0 mi NE 10.4 mph - N/A   Clear
8:15 PM 15.8 °F 10.2 °F 6.8 °F 68% 29.84 in 10.0 mi West 3.5 mph - N/A   Clear
8:35 PM 15.8 °F 8.6 °F 5.0 °F 62% 29.84 in 10.0 mi West 4.6 mph - N/A   Scattered Clouds
8:55 PM 14.0 °F -0.2 °F 3.2 °F 62% 29.85 in 10.0 mi WNW 12.7 mph - N/A   Partly Cloudy
9:15 PM 17.6 °F 1.7 °F 6.8 °F 63% 29.86 in 10.0 mi NW 18.4 mph - N/A   Scattered Clouds
9:35 PM 15.8 °F 1.4 °F 3.2 °F 58% 29.87 in 10.0 mi West 13.8 mph - N/A   Partly Cloudy
9:55 PM 15.8 °F 3.4 °F 5.0 °F 62% 29.87 in 10.0 mi WNW 10.4 mph 17.3 mph N/A   Clear
10:15 PM 17.6 °F 3.7 °F 3.2 °F 53% 29.88 in 10.0 mi NNW 13.8 mph - N/A   Clear
10:35 PM 17.6 °F 3.7 °F 3.2 °F 53% 29.89 in 10.0 mi North 13.8 mph - N/A   Clear
10:55 PM 15.8 °F 8.6 °F 3.2 °F 58% 29.89 in 10.0 mi NNW 4.6 mph - N/A   Clear
11:15 PM 17.6 °F 3.7 °F 1.4 °F 49% 29.89 in 10.0 mi NW 13.8 mph 19.6 mph N/A   Scattered Clouds
11:35 PM 17.6 °F 0.1 °F 1.4 °F 49% 29.89 in 10.0 mi NNW 23.0 mph 28.8 mph N/A   Overcast
11:55 PM 17.6 °F 2.2 °F 3.2 °F 53% 29.90 in 10.0 mi NNW 17.3 mph 29.9 mph N/A   Overcast